�N����,����,�~����,�C��,���x,�C��,����,���ϕ���,�ő�u�ԕ���,�ő厞����,���˗�,�I�_���x,�n�����x,�ő啗���N��,DTYPE
"16/09/26","00:10",0.6,22.6,94.1,1012.3,310.6,0.8,1.3,316.7,0.00,21.6,24.2,"00:05:44",1
"16/09/26","00:20",1.4,22.5,94.2,1012.3,259.5,0.6,1.1,243.9,0.00,21.6,24.4,"00:16:26",1
"16/09/26","00:30",1.4,22.6,94.5,1012.8,241.0,1.1,3.1,232.2,0.00,21.7,24.2,"00:29:26",1
"16/09/26","00:40",5.2,22.5,94.6,1012.8,250.6,1.1,2.9,223.1,0.00,21.6,24.0,"00:30:48",1
"16/09/26","00:50",10.2,22.3,94.6,1012.3,325.4,0.8,1.9,344.0,0.00,21.4,23.6,"00:48:22",1
"16/09/26","01:00",0.6,22.3,94.9,1012.8,285.5,0.5,0.9,341.3,0.00,21.5,23.8,"00:51:30",1
"16/09/26","01:10",1.0,22.2,95.0,1012.8,259.8,0.6,1.6,244.2,0.00,21.4,23.6,"01:00:08",1
"16/09/26","01:20",1.2,22.1,95.1,1012.6,317.1,0.7,1.8,349.2,0.00,21.3,23.8,"01:13:46",1
"16/09/26","01:30",0.6,22.0,95.3,1012.8,275.1,0.3,0.8,330.6,0.00,21.3,23.7,"01:20:02",1
"16/09/26","01:40",0.4,22.0,95.4,1012.3,268.5,0.2,0.8,235.4,0.00,21.3,23.8,"01:33:36",1
"16/09/26","01:50",0.8,22.0,95.4,1012.3,256.7,0.2,0.5,254.0,0.00,21.3,23.6,"01:43:44",1
"16/09/26","02:00",1.0,22.0,95.6,1012.3,255.6,0.3,0.8,264.5,0.00,21.3,23.6,"01:59:04",1
"16/09/26","02:10",0.8,22.0,95.6,1011.9,269.7,0.5,0.6,291.5,0.00,21.3,23.5,"02:02:24",1
"16/09/26","02:20",0.0,21.9,95.6,1012.6,275.2,0.5,0.8,252.1,0.00,21.2,23.6,"02:11:04",1
"16/09/26","02:30",0.2,21.9,95.8,1011.9,306.6,0.7,1.1,305.1,0.00,21.2,23.7,"02:25:04",1
"16/09/26","02:40",0.2,21.9,95.8,1012.3,279.0,0.5,0.9,327.9,0.00,21.2,23.5,"02:30:16",1
"16/09/26","02:50",0.0,21.9,95.9,1012.1,289.6,0.5,0.8,286.5,0.00,21.3,23.5,"02:41:36",1
"16/09/26","03:00",0.0,21.8,95.9,1012.1,276.4,0.3,0.6,322.0,0.00,21.2,23.6,"02:50:32",1
"16/09/26","03:10",0.0,21.8,96.0,1012.3,272.3,0.5,1.0,337.7,0.00,21.2,23.4,"03:08:48",1
"16/09/26","03:20",0.2,21.8,96.0,1012.3,284.9,0.5,1.2,339.8,0.00,21.2,23.5,"03:18:16",1
"16/09/26","03:30",0.2,21.8,96.0,1012.1,285.3,0.7,1.9,345.2,0.00,21.2,23.5,"03:23:52",1
"16/09/26","03:40",0.0,21.8,96.0,1011.9,264.8,0.6,1.2,251.9,0.00,21.2,23.3,"03:35:28",1
"16/09/26","03:50",0.0,21.8,96.0,1011.9,265.0,0.7,2.2,240.6,0.00,21.2,23.5,"03:47:28",1
"16/09/26","04:00",0.0,21.9,95.8,1012.1,254.7,1.0,2.2,239.8,0.00,21.2,23.6,"03:50:56",1
"16/09/26","04:10",0.0,21.8,95.8,1012.3,259.6,0.3,0.8,236.7,0.00,21.1,23.6,"04:02:00",1
"16/09/26","04:20",0.0,21.8,96.0,1012.3,319.7,0.3,0.8,342.0,0.00,21.2,23.6,"04:19:36",1
"16/09/26","04:30",0.0,21.8,95.9,1012.1,289.3,0.6,1.2,335.6,0.00,21.2,23.5,"04:21:04",1
"16/09/26","04:40",0.0,21.7,96.0,1012.3,324.0,0.6,0.9,318.3,0.00,21.1,23.4,"04:34:08",1
"16/09/26","04:50",0.0,21.7,96.0,1012.3,294.1,0.3,1.1,19.7,0.00,21.1,23.1,"04:40:56",1
"16/09/26","05:00",0.0,21.7,96.1,1012.1,297.5,0.3,1.1,327.4,0.00,21.1,23.2,"04:58:40",1
"16/09/26","05:10",0.0,21.6,96.1,1012.6,273.0,0.3,1.2,340.6,0.00,21.0,23.2,"05:00:32",1
"16/09/26","05:20",0.0,21.6,96.2,1012.6,294.7,0.5,0.6,328.0,0.00,21.0,23.1,"05:19:12",1
"16/09/26","05:30",0.0,21.7,96.2,1012.8,310.2,0.1,0.6,339.9,0.00,21.1,23.2,"05:20:08",1
"16/09/26","05:40",0.0,21.6,96.2,1012.3,321.7,0.2,0.5,265.1,0.00,21.0,23.3,"05:35:04",1
"16/09/26","05:50",0.0,21.6,96.4,1012.6,320.1,0.5,0.9,311.4,0.00,21.0,23.0,"05:47:44",1
"16/09/26","06:00",0.0,21.5,96.3,1012.6,291.5,0.3,0.6,309.1,0.00,20.9,23.2,"05:50:08",1
"16/09/26","06:10",0.0,21.4,96.4,1012.8,315.2,0.3,1.0,340.0,0.00,20.8,23.2,"06:06:24",1
"16/09/26","06:20",0.0,21.5,96.5,1012.8,333.7,0.3,1.0,340.6,0.00,21.0,23.2,"06:13:20",1
"16/09/26","06:30",0.0,21.6,96.6,1012.8,328.6,0.6,1.3,343.2,0.00,21.1,23.2,"06:22:00",1
"16/09/26","06:40",0.0,21.7,96.6,1013.0,287.7,0.6,1.4,227.7,0.00,21.2,23.0,"06:39:28",1
"16/09/26","06:50",0.0,21.8,96.6,1013.0,305.7,0.2,0.9,236.1,0.00,21.3,23.1,"06:40:08",1
"16/09/26","07:00",0.0,22.1,96.7,1013.3,273.0,0.6,0.9,243.1,0.01,21.6,23.3,"06:51:36",1
"16/09/26","07:10",0.0,22.4,96.6,1013.3,329.1,0.5,1.0,347.0,0.05,21.9,23.1,"07:06:40",1
"16/09/26","07:20",0.0,22.6,96.2,1013.5,356.3,0.6,1.2,2.9,0.08,22.0,23.2,"07:10:24",1
"16/09/26","07:30",0.0,23.0,94.6,1012.6,349.7,0.2,0.8,21.6,0.08,22.1,23.1,"07:21:04",1
"16/09/26","07:40",0.0,23.4,93.0,1012.8,323.9,0.5,1.6,345.4,0.08,22.2,23.5,"07:39:44",1
"16/09/26","07:50",0.0,23.7,92.7,1013.0,352.4,0.8,1.6,345.4,0.09,22.5,23.2,"07:41:04",1
"16/09/26","08:00",0.0,23.9,91.9,1013.3,340.5,0.7,1.9,348.0,0.09,22.5,23.5,"07:53:20",1
"16/09/26","08:10",0.0,24.0,91.0,1013.3,312.6,0.2,0.9,334.7,0.04,22.5,23.4,"08:06:24",1
"16/09/26","08:20",0.0,24.0,91.1,1013.0,286.4,0.0,0.3,273.5,0.03,22.5,23.6,"08:13:52",1
"16/09/26","08:30",0.0,24.0,91.2,1013.3,299.4,0.5,1.1,340.3,0.03,22.5,23.7,"08:28:24",1
"16/09/26","08:40",0.0,24.0,91.6,1013.3,304.0,0.3,0.8,327.3,0.07,22.6,23.6,"08:30:08",1
"16/09/26","08:50",0.0,24.2,89.0,1013.8,236.4,1.0,1.9,223.4,0.13,22.3,23.6,"08:47:44",1
"16/09/26","09:00",0.0,24.9,86.8,1013.5,233.9,0.6,1.4,226.0,0.17,22.6,23.8,"08:50:24",1
"16/09/26","09:10",0.0,25.4,86.9,1013.3,296.6,0.5,1.1,342.5,0.17,23.1,23.9,"09:08:08",1
"16/09/26","09:20",0.0,25.6,84.8,1013.3,292.8,0.5,1.0,350.1,0.19,22.9,24.1,"09:10:48",1
"16/09/26","09:30",0.0,26.5,81.7,1013.0,330.9,0.3,1.2,19.5,0.30,23.2,24.2,"09:28:08",1
"16/09/26","09:40",0.0,26.4,78.3,1013.3,27.0,0.6,1.4,357.1,0.23,22.4,24.4,"09:30:40",1
"16/09/26","09:50",0.0,26.0,79.4,1013.5,86.7,0.7,1.7,110.5,0.12,22.2,24.3,"09:44:32",1
"16/09/26","10:00",0.0,26.1,80.2,1013.5,60.8,0.7,1.7,37.7,0.09,22.5,24.6,"09:55:20",1
"16/09/26","10:10",0.0,25.9,80.4,1014.0,26.9,0.7,1.7,7.6,0.05,22.3,24.7,"10:05:12",1
"16/09/26","10:20",0.0,25.5,81.6,1013.8,33.5,0.7,1.4,354.9,0.03,22.2,24.7,"10:18:48",1
"16/09/26","10:30",0.0,25.5,83.7,1013.5,323.4,0.6,1.4,345.0,0.02,22.6,24.5,"10:20:48",1
"16/09/26","10:40",0.0,25.5,86.5,1013.5,353.7,0.8,1.3,349.8,0.05,23.1,24.9,"10:30:32",1
"16/09/26","10:50",0.0,25.3,89.1,1013.0,334.3,1.0,1.9,340.9,0.09,23.4,24.7,"10:42:24",1
"16/09/26","11:00",0.0,25.5,87.7,1013.0,315.1,0.3,0.8,347.2,0.08,23.3,24.6,"10:57:28",1
"16/09/26","11:10",0.0,25.6,86.5,1013.0,301.0,0.3,1.2,339.0,0.09,23.2,24.7,"11:09:44",1
"16/09/26","11:20",0.0,26.0,85.6,1013.0,341.1,0.3,1.3,349.0,0.14,23.4,24.8,"11:17:52",1
"16/09/26","11:30",0.0,26.6,84.1,1012.8,354.7,0.5,1.2,336.6,0.21,23.7,25.2,"11:24:32",1
"16/09/26","11:40",0.0,27.1,79.8,1012.8,120.9,0.6,1.4,10.5,0.23,23.3,25.0,"11:30:56",1
"16/09/26","11:50",0.0,27.0,79.9,1012.3,116.1,0.5,1.8,100.2,0.16,23.3,24.9,"11:46:48",1
"16/09/26","12:00",0.0,26.8,79.8,1012.8,42.2,0.7,2.2,25.1,0.17,23.1,25.0,"11:55:36",1
"16/09/26","12:10",0.0,26.6,80.2,1012.3,30.3,0.6,1.6,97.8,0.10,22.9,25.1,"12:00:48",1
"16/09/26","12:20",0.0,26.5,80.5,1012.3,9.0,0.5,1.4,336.4,0.10,22.9,25.2,"12:18:32",1
"16/09/26","12:30",0.0,26.7,80.7,1012.3,3.2,0.7,1.6,1.9,0.12,23.1,25.2,"12:29:04",1
"16/09/26","12:40",0.0,26.9,80.9,1012.1,7.7,0.8,1.9,355.8,0.17,23.4,25.4,"12:38:32",1
"16/09/26","12:50",0.0,26.7,80.9,1011.9,6.0,0.8,1.8,8.8,0.15,23.2,25.5,"12:44:32",1
"16/09/26","13:00",0.0,27.0,81.1,1011.9,337.6,0.6,1.3,4.9,0.13,23.5,25.2,"12:56:48",1
"16/09/26","13:10",0.0,27.0,79.9,1011.4,347.6,0.8,2.1,348.1,0.09,23.3,25.4,"13:06:32",1
"16/09/26","13:20",0.0,26.8,82.6,1011.4,352.4,0.8,2.0,344.8,0.09,23.6,25.5,"13:14:24",1
"16/09/26","13:30",0.0,26.8,81.0,1011.4,359.5,0.8,2.0,334.8,0.11,23.3,25.5,"13:24:00",1
"16/09/26","13:40",0.0,27.1,80.1,1011.4,349.8,1.0,2.2,340.8,0.17,23.4,25.5,"13:33:36",1
"16/09/26","13:50",0.0,27.7,78.3,1011.2,356.5,0.6,1.6,21.0,0.21,23.6,25.6,"13:49:28",1
"16/09/26","14:00",0.0,28.3,77.3,1011.2,8.4,0.6,1.6,341.8,0.30,24.0,25.6,"13:50:32",1
"16/09/26","14:10",0.0,28.3,74.3,1010.7,6.6,0.7,1.9,339.0,0.29,23.3,25.7,"14:06:00",1
"16/09/26","14:20",0.0,27.8,76.3,1010.9,118.3,0.6,1.4,123.9,0.17,23.3,25.6,"14:18:16",1
"16/09/26","14:30",0.0,27.8,76.1,1010.4,17.5,0.8,2.0,77.0,0.15,23.2,26.0,"14:22:00",1
"16/09/26","14:40",0.0,28.0,76.2,1010.4,14.0,0.7,1.7,359.6,0.17,23.5,26.1,"14:35:44",1
"16/09/26","14:50",0.0,28.8,72.3,1010.7,22.4,1.0,2.7,9.6,0.35,23.4,26.1,"14:43:52",1
"16/09/26","15:00",0.0,29.5,70.7,1010.9,28.4,0.6,2.2,319.0,0.35,23.7,26.2,"14:58:24",1
"16/09/26","15:10",0.0,28.7,72.3,1010.9,77.5,0.6,1.8,45.7,0.14,23.3,26.3,"15:00:24",1
"16/09/26","15:20",0.0,28.0,74.1,1010.2,51.2,1.1,2.4,41.1,0.10,23.0,26.2,"15:12:00",1
"16/09/26","15:30",0.0,28.0,74.9,1010.2,23.3,1.0,2.7,357.4,0.11,23.2,26.3,"15:20:02",1
"16/09/26","15:40",0.0,27.9,74.3,1009.5,8.6,1.5,3.5,350.7,0.15,22.9,26.4,"15:36:48",1
"16/09/26","15:50",0.0,28.1,73.8,1009.7,25.2,1.1,2.6,33.3,0.14,23.0,26.3,"15:41:12",1
"16/09/26","16:00",0.0,28.2,73.8,1009.7,358.7,1.1,2.6,343.6,0.12,23.1,26.2,"15:56:56",1
"16/09/26","16:10",0.0,28.4,73.8,1009.5,15.2,0.6,2.0,345.6,0.05,23.3,26.1,"16:02:24",1
"16/09/26","16:20",0.0,28.4,72.5,1009.5,19.5,0.6,1.4,356.7,0.06,23.0,26.1,"16:10:40",1
"16/09/26","16:30",0.0,28.4,73.2,1009.7,41.1,0.6,1.4,7.1,0.04,23.2,26.3,"16:21:52",1
"16/09/26","16:40",0.0,28.2,73.3,1009.5,5.5,0.5,1.8,347.7,0.02,23.0,26.4,"16:35:12",1
"16/09/26","16:50",0.0,27.7,74.9,1009.7,54.0,0.6,1.4,46.2,0.00,22.9,26.1,"16:45:36",1
"16/09/26","17:00",0.0,27.4,76.2,1010.2,349.3,0.5,1.6,59.0,0.00,22.9,26.2,"16:54:16",1
"16/09/26","17:10",0.0,27.3,77.8,1010.2,357.7,0.6,1.4,354.4,0.01,23.1,26.2,"17:05:28",1
"16/09/26","17:20",0.0,26.9,79.2,1010.4,337.2,0.5,1.1,338.1,0.00,23.0,26.0,"17:12:32",1
"16/09/26","17:30",0.0,26.7,80.2,1010.4,50.4,0.3,1.0,28.8,0.00,23.0,26.0,"17:21:28",1
"16/09/26","17:40",0.0,26.5,80.6,1010.7,347.5,0.5,1.3,352.5,0.00,22.9,25.8,"17:38:00",1
"16/09/26","17:50",0.0,26.3,82.1,1010.7,340.2,0.7,1.7,341.4,0.00,23.0,25.7,"17:45:12",1
"16/09/26","18:00",0.0,25.9,83.4,1010.7,308.1,0.3,0.8,340.9,0.00,22.9,25.8,"17:51:04",1
"16/09/26","18:10",0.0,25.4,84.8,1010.7,295.2,0.3,0.8,316.5,0.00,22.7,25.5,"18:08:16",1
"16/09/26","18:20",0.0,24.9,86.1,1010.9,304.1,0.5,0.6,305.4,0.00,22.5,25.6,"18:13:28",1
"16/09/26","18:30",0.0,24.6,87.6,1011.2,321.9,0.7,1.2,358.2,0.00,22.4,25.4,"18:26:16",1
"16/09/26","18:40",0.0,24.3,88.7,1011.2,301.6,0.5,1.1,333.9,0.00,22.4,25.3,"18:30:08",1
"16/09/26","18:50",0.0,23.9,89.8,1011.4,322.2,0.7,1.2,328.5,0.00,22.2,25.3,"18:49:04",1
"16/09/26","19:00",0.0,23.7,90.3,1011.4,315.3,0.5,0.9,316.1,0.00,22.1,25.2,"18:55:20",1
"16/09/26","19:10",0.0,23.4,91.1,1011.6,293.4,0.7,1.2,322.6,0.00,21.9,25.0,"19:06:40",1
"16/09/26","19:20",0.0,23.2,91.7,1012.1,299.3,0.8,1.6,321.3,0.00,21.8,25.2,"19:14:56",1
"16/09/26","19:30",0.0,23.1,92.3,1012.1,307.9,1.0,1.3,317.2,0.00,21.8,24.7,"19:23:12",1
"16/09/26","19:40",0.0,22.9,92.5,1012.3,298.2,0.8,1.4,332.4,0.00,21.7,24.8,"19:30:16",1
"16/09/26","19:50",0.0,22.8,92.9,1012.6,293.2,1.0,1.2,307.8,0.00,21.6,24.8,"19:44:56",1
"16/09/26","20:00",0.0,22.7,93.3,1012.8,301.2,1.0,1.4,315.2,0.00,21.6,24.9,"19:59:28",1
"16/09/26","20:10",0.0,22.6,93.6,1013.0,309.6,1.2,1.6,319.3,0.00,21.6,24.7,"20:08:56",1
"16/09/26","20:20",0.0,22.5,93.7,1013.0,291.9,0.6,1.3,318.5,0.00,21.5,24.6,"20:12:56",1
"16/09/26","20:30",0.0,22.5,94.1,1013.0,292.4,0.5,1.0,313.8,0.00,21.5,24.6,"20:23:52",1
"16/09/26","20:40",0.0,22.5,94.1,1012.8,279.3,1.0,1.4,307.2,0.00,21.5,24.4,"20:38:00",1
"16/09/26","20:50",0.0,22.4,94.3,1013.0,291.9,1.0,1.2,305.8,0.00,21.5,24.3,"20:45:20",1
"16/09/26","21:00",0.0,22.4,94.3,1012.8,302.1,1.0,1.3,323.1,0.00,21.5,24.3,"20:53:52",1
"16/09/26","21:10",0.0,22.4,94.5,1013.3,309.7,1.2,1.9,318.7,0.00,21.5,24.4,"21:03:28",1
"16/09/26","21:20",0.0,22.3,94.5,1013.3,309.8,1.1,1.7,308.7,0.00,21.4,24.2,"21:10:16",1
"16/09/26","21:30",0.0,22.2,94.4,1013.3,296.2,1.0,1.8,316.4,0.00,21.3,24.3,"21:25:36",1
"16/09/26","21:40",0.0,22.1,94.7,1013.0,292.0,1.1,1.7,323.7,0.00,21.2,24.2,"21:38:08",1
"16/09/26","21:50",0.0,22.0,94.9,1013.3,311.1,1.3,1.7,307.8,0.00,21.2,24.0,"21:49:44",1
"16/09/26","22:00",0.0,22.0,95.1,1013.3,311.4,1.2,1.7,316.1,0.00,21.2,24.2,"21:50:24",1
"16/09/26","22:10",0.0,21.9,95.2,1012.8,301.5,1.0,1.3,316.8,0.00,21.1,24.1,"22:08:16",1
"16/09/26","22:20",0.0,21.8,95.2,1013.0,306.7,1.1,1.8,320.5,0.00,21.0,24.1,"22:12:16",1
"16/09/26","22:30",0.0,21.7,95.4,1012.8,309.3,1.1,1.4,315.2,0.00,21.0,23.8,"22:28:08",1
"16/09/26","22:40",0.0,21.7,95.5,1012.8,307.5,1.2,1.8,322.0,0.00,21.0,24.0,"22:32:08",1
"16/09/26","22:50",0.0,21.6,95.7,1012.8,292.9,0.7,1.2,317.5,0.00,20.9,24.2,"22:49:44",1
"16/09/26","23:00",0.0,21.7,95.7,1012.8,306.8,1.1,1.3,317.7,0.00,21.0,24.0,"22:50:08",1
"16/09/26","23:10",0.0,21.8,96.0,1013.5,315.6,1.2,1.9,321.0,0.00,21.2,23.8,"23:08:00",1
"16/09/26","23:20",0.0,22.0,95.9,1012.8,288.6,0.8,1.2,294.5,0.00,21.4,23.8,"23:14:56",1
"16/09/26","23:30",0.0,22.0,95.9,1013.3,291.8,0.5,0.8,285.7,0.00,21.4,23.7,"23:23:36",1
"16/09/26","23:40",0.0,22.0,96.0,1013.0,292.7,1.0,1.6,317.1,0.00,21.4,23.6,"23:34:56",1
"16/09/26","23:50",0.0,22.2,96.0,1012.6,310.8,1.1,1.7,318.8,0.00,21.6,23.8,"23:44:40",1
"16/09/26","24:00",0.0,22.3,95.9,1013.0,319.1,1.3,1.9,328.0,0.00,21.7,23.6,"23:56:40",1
